{"data":{"norad_id":51792,"intl_designator":"2022-017AA","name":"STARLINK-3626","alt_names":[],"object_type":"PAYLOAD","status":"ACTIVE","operator":null,"country":"US","launch_date":"2022-02-25","launch_site_code":"AFWTR","launch_vehicle":null,"mission":null,"orbit_class":"UNKNOWN","rcs_meters":null,"size_class":null,"mass_kg":null,"dimensions":null,"purposes":["comms"],"wikipedia_slug":null,"has_3d_model":false,"image_url":null,"decayed_at":null,"tle_current":{"epoch":"2026-09-20T04:29:47.082336Z","epoch_age_seconds":79234,"freshness":"FRESH","line1":"1 51792U 22017AA  26263.18735049 -.00000455  00000+0 -24950-5 0  9992","line2":"2 51792  53.1606 181.3628 0001201  83.9821 276.1318 15.33545027253532","mean_motion":15.33545027,"eccentricity":0.0001201,"inclination_deg":53.1606,"raan_deg":181.3628,"arg_perigee_deg":83.9821,"mean_anomaly_deg":276.1318,"bstar":-2.495e-6,"rev_number":25353,"period_min":93.900079531215,"perigee_km":464.42369042988,"apogee_km":466.06747092576,"semimajor_km":6843.3825806778,"source":"CELESTRAK","updated_at":"2026-09-20T09:00:39.940921Z"}}}